Regional Weather Roundup
Issued by NWS

Home | Current Version | Previous Version | Graphics & Text | Print | Product List | Glossary On
Versions: 1 2 3 4 5 6 7 8 9 10 11 12 13 14 15 16 17 18 19 20 21 22 23 24 25 26 27 28 29 30 31 32 33 34 35 36 37 38 39 40 41 42 43 44 45 46 47 48 49 50
000
ASUS45 KSLC 302210
RWRUT

UTAH REGIONAL WEATHER ROUNDUP
NATIONAL WEATHER SERVICE SALT LAKE CITY UT
400 PM MDT SAT AUG 30 2014

UTZ001>011-023>025-302300-

NORTHERN UTAH

CITY           SKY/WX    TMP DP  RH WIND       PRES   REMARKS
HILL AFB       MOSUNNY   80  43  26 VRB7      29.92F
LOGAN          MOSUNNY   80  44  27 S12G20    29.88F
OGDEN          MOSUNNY   80  39  23 SE6       29.89F
PROVO AIRPORT  PTSUNNY   82  39  21 CALM      29.93F
SALT LAKE CITY PTSUNNY   82  40  22 E12       29.87F
VERNAL         CLOUDY    73  50  44 VRB6      30.01S
WENDOVER       MOSUNNY   90  34  13 W20       29.86F
HEBER CITY     PTSUNNY   70  46  43 NW7       30.01F
WEST JORDAN    SUNNY     82  50  32 SE7       29.91F

$$

UTZ012>022-026-027-302300-

SOUTHERN UTAH

CITY           SKY/WX    TMP DP  RH WIND       PRES   REMARKS
BRYCE CANYON   CLOUDY    74  35  24 SW13G23   30.20F
CEDAR CITY     PTSUNNY   85  29  13 S21G33    30.02F
MILFORD        SUNNY     90  31  12 S29G45    29.93F
MOAB/CYNLANDS  SUNNY     88  36  15 CALM      29.91F
PRICE          PTSUNNY   79  38  22 SE9       30.03F
ST GEORGE      MOCLDY    97  41  14 W8        29.84F HX  92

$$

REGIONAL REPORTS     COLORADO/ARIZONA

CITY           SKY/WX    TMP DP  RH WIND       PRES   REMARKS
CRAIG, CO      PTSUNNY   76  41  28 W20       30.04S
GRAND JUNCTION CLOUDY    79  45  29 NW12      29.98F
RIFLE          CLOUDY    81  42  25 W18       30.01F
MONTROSE       PTSUNNY   82  41  23 NW6       30.06F
CORTEZ         PTSUNNY   84  36  18 W9        30.10F
PAGE, AZ       PTSUNNY   91  34  13 SE3       29.94F
GRAND CANYON   PTSUNNY   82  32  16 SW13G24   30.19F
KINGMAN        MOSUNNY   97  32  10 SW21G28   29.92F HX  91
FLAGSTAFF      SUNNY     78  39  24 SW14G21   30.23F

$$

REGIONAL REPORTS    NEVADA/IDAHO/WYOMING

CITY           SKY/WX    TMP DP  RH WIND       PRES   REMARKS
LAS VEGAS, NV  PTSUNNY  105  28   7 SW15G24   29.71F HX  98
ELY            MOSUNNY   84  25  11 W8G22     30.01F
ELKO           MOSUNNY   83  30  14 W16G23    29.93F
POCATELLO, ID  MOSUNNY   75  41  29 SW15G28   29.92F
BURLEY         MOSUNNY   74  42  31 W13G21    29.90F
EVANSTON, WY   MOSUNNY   68  42  38 SW18G25   30.08F
ROCK SPRINGS   LGT RAIN  59  46  62 VRB5G23   30.11R

$$


USA.gov is the U.S. government's official web portal to all federal, state and local government web resources and services.